Weather History for Kelso-Longview, WA

Change the Weather History Date:

Friday, September 13, 2013

  Actual Average Record
Temperature  
Mean Temperature 63 °F -  
Max Temperature 66 °F 69 °F 89 °F (1999)
Min Temperature 60 °F 49 °F 42 °F (1999)
Degree Days  
Heating Degree Days 2    
Growing Degree Days 13 (Base 50)    
Moisture  
Dew Point 56 °F    
Average Humidity 79    
Maximum Humidity 88    
Minimum Humidity 73    
Precipitation  
Precipitation 0.00 in - - ()
Sea Level Pressure  
Sea Level Pressure 29.97 in    
Wind  
Wind Speed 2 mph (NW)    
Max Wind Speed 9 mph    
Max Gust Speed -    
Visibility 9 miles    
Events      
Averages and records for this station are not official NWS values.
T = Trace of Precipitation, MM = Missing Value Source: NWS Daily Summary

Daily Weather History Graph

Daily Weather History Graph

Search for Another Location

Airport:

Trip Planner

Search our weather history database for the weather conditions in past years. The results will help you decide how hot, cold, wet, or windy it might be!

Date:

Astronomy

Sep. 13, 2013 Rise Set
Actual Time 6:47 AM PDT 7:26 PM PDT
Civil Twilight 6:17 AM PDT 7:56 PM PDT
Nautical Twilight 5:41 AM PDT 8:32 PM PDT
Astronomical Twilight 5:04 AM PDT 9:09 PM PDT
Moon 3:35 PM PDT (9/13) 12:07 AM PDT (9/13)
Length of Visible Light 13h 38m
Length of Day
12h 38m
Waxing Gibbous, 62% of the Moon is Illuminated
Sep 13
Waxing Gibbous
Sep 19
Full
Sep 26
Last Quarter
Oct 4
New
Oct 11
First Quarter

Hourly Weather History & Observations

Time (PDT) Temp. Dew Point Humidity Pressure Visibility Wind Dir Wind Speed Gust Speed Precip Events Conditions
12:15 AM 60.8 °F 55.4 °F 82% 30.00 in 10.0 mi West 3.5 mph - N/A   Overcast
12:35 AM 60.8 °F 55.4 °F 82% 30.00 in 10.0 mi Calm Calm - N/A   Overcast
12:55 AM 60.8 °F 55.4 °F 82% 30.00 in 10.0 mi Calm Calm - N/A   Overcast
1:15 AM 60.8 °F 57.2 °F 88% 30.00 in 10.0 mi Calm Calm - N/A   Overcast
1:35 AM 60.8 °F 57.2 °F 88% 30.01 in 10.0 mi Calm Calm - N/A   Overcast
1:55 AM 60.8 °F 57.2 °F 88% 30.01 in 10.0 mi Calm Calm - N/A   Overcast
2:15 AM 60.8 °F 55.4 °F 82% 30.01 in 10.0 mi Calm Calm - N/A   Overcast
2:35 AM 60.8 °F 55.4 °F 82% 30.01 in 10.0 mi Calm Calm - N/A   Overcast
2:55 AM 60.8 °F 55.4 °F 82% 30.02 in 9.0 mi WNW 3.5 mph - N/A   Overcast
3:15 AM 60.8 °F 55.4 °F 82% 30.02 in 10.0 mi NW 3.5 mph - N/A   Overcast
3:35 AM 60.8 °F 55.4 °F 82% 30.02 in 10.0 mi NW 3.5 mph - N/A   Overcast
3:55 AM 60.8 °F 55.4 °F 82% 30.02 in 6.0 mi NW 4.6 mph - N/A   Overcast
4:15 AM 60.8 °F 55.4 °F 82% 30.01 in 4.0 mi NW 3.5 mph - N/A   Overcast
4:35 AM 60.8 °F 55.4 °F 82% 30.01 in 10.0 mi NNW 3.5 mph - N/A   Overcast
4:55 AM 60.8 °F 55.4 °F 82% 30.01 in 10.0 mi Calm Calm - N/A   Overcast
5:15 AM 60.8 °F 55.4 °F 82% 30.01 in 4.0 mi NW 3.5 mph - N/A   Overcast
5:35 AM 60.8 °F 55.4 °F 82% 30.01 in 7.0 mi Calm Calm - N/A   Overcast
5:55 AM 60.8 °F 55.4 °F 82% 30.01 in 8.0 mi NW 3.5 mph - N/A   Overcast
6:15 AM 60.8 °F 55.4 °F 82% 30.01 in 10.0 mi Calm Calm - N/A   Overcast
6:35 AM 60.8 °F 55.4 °F 82% 30.01 in 10.0 mi Calm Calm - N/A   Overcast
6:55 AM 60.8 °F 55.4 °F 82% 30.01 in 10.0 mi Calm Calm - N/A   Overcast
7:15 AM 60.8 °F 55.4 °F 82% 30.01 in 10.0 mi Calm Calm - N/A   Overcast
7:35 AM 60.8 °F 55.4 °F 82% 30.01 in 5.0 mi Calm Calm - N/A   Overcast
7:55 AM 60.8 °F 55.4 °F 82% 30.01 in 1.8 mi Calm Calm - N/A   Overcast
8:15 AM 60.8 °F 55.4 °F 82% 30.01 in 2.5 mi WNW 3.5 mph - N/A   Overcast
8:35 AM 60.8 °F 57.2 °F 88% 30.01 in 2.5 mi Calm Calm - N/A   Overcast
8:55 AM 60.8 °F 57.2 °F 88% 30.01 in 9.0 mi Calm Calm - N/A   Overcast
9:15 AM 60.8 °F 55.4 °F 82% 30.01 in 10.0 mi Calm Calm - N/A   Overcast
9:35 AM 62.6 °F 55.4 °F 77% 30.01 in 10.0 mi Calm Calm - N/A   Overcast
9:55 AM 62.6 °F 55.4 °F 77% 30.01 in 10.0 mi Calm Calm - N/A   Overcast
10:15 AM 62.6 °F 55.4 °F 77% 30.01 in 10.0 mi NW 3.5 mph - N/A   Overcast
10:35 AM 62.6 °F 55.4 °F 77% 30.01 in 10.0 mi Calm Calm - N/A   Overcast
10:55 AM 62.6 °F 55.4 °F 77% 30.01 in 10.0 mi Calm Calm - N/A   Overcast
11:15 AM 62.6 °F 55.4 °F 77% 30.00 in 10.0 mi Calm Calm - N/A   Overcast
11:35 AM 64.4 °F 55.4 °F 73% 30.00 in 10.0 mi Calm Calm - N/A   Overcast
11:55 AM 64.4 °F 55.4 °F 73% 29.99 in 10.0 mi Calm Calm - N/A   Overcast
12:15 PM 64.4 °F 57.2 °F 77% 29.99 in 10.0 mi WSW 3.5 mph - N/A   Overcast
12:35 PM 64.4 °F 57.2 °F 77% 29.98 in 10.0 mi WNW 3.5 mph - N/A   Overcast
12:55 PM 64.4 °F 55.4 °F 73% 29.98 in 10.0 mi West 4.6 mph - N/A   Overcast
1:15 PM 64.4 °F 57.2 °F 77% 29.98 in 10.0 mi WNW 4.6 mph - N/A   Overcast
1:35 PM 64.4 °F 57.2 °F 77% 29.97 in 10.0 mi Calm Calm - N/A   Overcast
1:55 PM 64.4 °F 57.2 °F 77% 29.97 in 10.0 mi West 4.6 mph - N/A   Overcast
2:15 PM 64.4 °F 57.2 °F 77% 29.97 in 10.0 mi Calm Calm - N/A   Overcast
2:35 PM 64.4 °F 57.2 °F 77% 29.97 in 10.0 mi West 3.5 mph - N/A   Overcast
2:55 PM 66.2 °F 57.2 °F 73% 29.96 in 10.0 mi WNW 3.5 mph - N/A   Overcast
3:15 PM 66.2 °F 57.2 °F 73% 29.95 in 10.0 mi WNW 3.5 mph - N/A   Overcast
3:35 PM 66.2 °F 57.2 °F 73% 29.95 in 10.0 mi West 3.5 mph - N/A   Overcast
3:55 PM 66.2 °F 57.2 °F 73% 29.94 in 10.0 mi West 4.6 mph - N/A   Overcast
4:15 PM 66.2 °F 57.2 °F 73% 29.94 in 10.0 mi NW 4.6 mph - N/A   Overcast
4:35 PM 66.2 °F 57.2 °F 73% 29.94 in 10.0 mi North 6.9 mph - N/A   Overcast
4:55 PM 66.2 °F 57.2 °F 73% 29.93 in 10.0 mi NNW 5.8 mph - N/A   Overcast
5:15 PM 66.2 °F 57.2 °F 73% 29.93 in 10.0 mi Calm Calm - N/A   Overcast
5:35 PM 66.2 °F 57.2 °F 73% 29.92 in 10.0 mi NW 3.5 mph - N/A   Overcast
5:55 PM 66.2 °F 57.2 °F 73% 29.92 in 10.0 mi NW 4.6 mph - N/A   Overcast
6:15 PM 66.2 °F 57.2 °F 73% 29.92 in 10.0 mi NW 3.5 mph - N/A   Overcast
6:35 PM 66.2 °F 57.2 °F 73% 29.91 in 10.0 mi Calm Calm - N/A   Overcast
6:55 PM 64.4 °F 57.2 °F 77% 29.91 in 10.0 mi WNW 3.5 mph - N/A   Overcast
7:15 PM 64.4 °F 57.2 °F 77% 29.90 in 10.0 mi Calm Calm - N/A   Overcast
7:35 PM 64.4 °F 57.2 °F 77% 29.90 in 10.0 mi Calm Calm - N/A   Overcast
7:55 PM 64.4 °F 57.2 °F 77% 29.91 in 10.0 mi NNW 3.5 mph - N/A   Overcast
8:15 PM 64.4 °F 57.2 °F 77% 29.91 in 10.0 mi NW 4.6 mph - N/A   Overcast
8:35 PM 64.4 °F 57.2 °F 77% 29.91 in 10.0 mi NW 3.5 mph - N/A   Overcast
8:55 PM 64.4 °F 57.2 °F 77% 29.91 in 10.0 mi NW 3.5 mph - N/A   Overcast
9:15 PM 64.4 °F 57.2 °F 77% 29.91 in 10.0 mi NW 3.5 mph - N/A   Overcast
9:35 PM 64.4 °F 57.2 °F 77% 29.92 in 10.0 mi North 3.5 mph - N/A   Overcast
9:55 PM 64.4 °F 57.2 °F 77% 29.91 in 10.0 mi Calm Calm - N/A   Overcast
10:15 PM 64.4 °F 57.2 °F 77% 29.91 in 10.0 mi WNW 3.5 mph - N/A   Overcast
10:35 PM 64.4 °F 57.2 °F 77% 29.91 in 10.0 mi NNW 8.1 mph - N/A   Overcast
10:55 PM 64.4 °F 57.2 °F 77% 29.91 in 10.0 mi North 9.2 mph - N/A   Overcast
11:15 PM 64.4 °F 57.2 °F 77% 29.91 in 10.0 mi North 6.9 mph - N/A   Overcast
11:35 PM 64.4 °F 57.2 °F 77% 29.91 in 10.0 mi NNW 5.8 mph - N/A   Overcast
11:55 PM 62.6 °F 57.2 °F 82% 29.91 in 10.0 mi NNW 5.8 mph - N/A   Overcast